Showing default

SENTINEL 2A, 40697

Orbit data source: Space-Track

SENTINEL 2A, 40697 is an ESA payload satellite in SSO that was launched on Tue, 23 Jun 2015 UTC via a VEGA launch vehicle from the French Guiana (FRGUI). Payload-class satellites include a variety of spacecraft equipped with specific instruments for various scientific and technological missions. These include communications satellites like Starlink; space stations such as the ISS; scientific satellites like the Hubble; Earth observation satellites from companies like Planet Labs, Umbra, and HawkEye 360; GPS; miniature CubeSats for education and research; and military/defense satellites.

Loading next visibility...
Identifier
40697, 2015-028A
Orbit
SSO
Country
Flag of ESAESA
Related business
Manufacturer
ADS/Bremen
Mission
Operational Civil Imaging
Bus & Motor
SENTINEL-2, AOCS
Mass
1,130 kg wet, 1,063 kg dry
Launch date (UTC)
2015-06-23 (11 years ago)
Launch vehicle
VEGA
Launch site
French Guiana (FRGUI)
Object type
Payload
Rocket body
Debris
Shape & HBR
Box + 1 Pan, 6.0 m
Radar Cross Section
11.901 m², Large (>1 m²)

Expand to show TLE details & history
Last TLE update: 1 day ago

TLE from 1 day ago
0 SENTINEL 2A
1 40697U 15028A   26172.48042995  .00000285  00000-0  12533-3 0  9993
2 40697  98.5679 247.2715 0001119  92.5199 267.6112 14.30817044574347
Epoch: 2026-06-21T11:31Z
TLE epoch observation values (Epoch: 2026-06-21T11:31:49.147Z)
Latitude
-0.00004°
Longitude
164.63663°
Altitude
791.968 km
Speed
7.458 km/s
True Right ascension
16h 29m 05s
True Declination
0° 00' 00"
Sunlit
Object was in full shadow at epoch
Visualization orbit readout
Latitude
Unknown
Longitude
Unknown
Altitude
Unknown
Speed
Unknown
Apparent Right ascension
Unknown
Apparent Declination
Unknown
Sunlit
N/A
Visualization observer readout
Local Sidereal Time
23:19:25
Azimuth
Unknown
Elevation
Unknown
Doppler factor
Unknown
Orbital elements
Apogee altitude
786.94 km
Perigee altitude
785.337 km
Semi-major axis
7,164.275 km
Eccentricity
0.00011
Inclination
98.5679°
RAAN
247.2715°
Arg. of periapsis
92.5199°
True anomaly
267.59839°
Mean anomaly
267.6112°
Eccentric anomaly
267.60479°
Mean motion
3.57919 °/min
Orbital period
100.58 mins
BSTAR
0.00012533
Loading maneuver chart data...
Computing Atmospheric mass density...
Loading historical data...
Loading historical data...
Loading historical data...
Loading historical data...
Loading historical data...
Loading historical data...
Loading historical data...
Other satellites on launch #28 in the year 2015 (2015-06-23 UTC)

Documentation

Showing up to 5 results
|